TimeCST,TemperatureF,Dew PointF,Humidity,Sea Level PressureIn,VisibilityMPH,Wind Direction,Wind SpeedMPH,Gust SpeedMPH,PrecipitationIn,Events,Conditions,WindDirDegrees,DateUTC
12:15 AM,19.4,3.2,49,30.31,10.0,NNE,10.4,-,N/A,,Clear,20,2014-02-12 06:15:00
12:35 AM,19.4,3.2,49,30.30,10.0,NNE,9.2,-,N/A,,Clear,20,2014-02-12 06:35:00
12:55 AM,19.4,3.2,49,30.29,10.0,North,9.2,-,N/A,,Clear,10,2014-02-12 06:55:00
1:15 AM,17.6,3.2,53,30.28,10.0,NNE,10.4,-,N/A,,Clear,20,2014-02-12 07:15:00
1:35 AM,17.6,3.2,53,30.28,10.0,North,11.5,-,N/A,,Clear,10,2014-02-12 07:35:00
1:55 AM,17.6,3.2,53,30.27,10.0,NNE,8.1,-,N/A,,Clear,30,2014-02-12 07:55:00
2:15 AM,17.6,3.2,53,30.26,10.0,NNE,10.4,-,N/A,,Clear,30,2014-02-12 08:15:00
2:35 AM,17.6,3.2,53,30.25,10.0,NNE,9.2,-,N/A,,Clear,30,2014-02-12 08:35:00
2:55 AM,17.6,3.2,53,30.25,10.0,NNE,8.1,-,N/A,,Clear,20,2014-02-12 08:55:00
3:15 AM,15.8,1.4,53,30.25,10.0,NNE,6.9,-,N/A,,Clear,20,2014-02-12 09:15:00
3:35 AM,15.8,1.4,53,30.24,10.0,North,6.9,-,N/A,,Clear,10,2014-02-12 09:35:00
3:55 AM,15.8,1.4,53,30.24,10.0,North,5.8,-,N/A,,Clear,360,2014-02-12 09:55:00
4:15 AM,15.8,1.4,53,30.23,10.0,North,8.1,-,N/A,,Clear,360,2014-02-12 10:15:00
4:35 AM,15.8,1.4,53,30.22,10.0,North,6.9,-,N/A,,Clear,10,2014-02-12 10:35:00
4:55 AM,15.8,1.4,53,30.21,10.0,North,5.8,-,N/A,,Clear,10,2014-02-12 10:55:00
5:15 AM,15.8,1.4,53,30.21,10.0,North,8.1,-,N/A,,Clear,360,2014-02-12 11:15:00
5:35 AM,15.8,1.4,53,30.22,10.0,North,10.4,-,N/A,,Clear,350,2014-02-12 11:35:00
5:55 AM,15.8,1.4,53,30.21,10.0,North,6.9,-,N/A,,Clear,10,2014-02-12 11:55:00
6:15 AM,15.8,1.4,53,30.21,10.0,North,8.1,-,N/A,,Clear,10,2014-02-12 12:15:00
6:35 AM,15.8,1.4,53,30.21,10.0,North,6.9,-,N/A,,Clear,360,2014-02-12 12:35:00
6:55 AM,15.8,1.4,53,30.22,10.0,NNW,8.1,-,N/A,,Clear,340,2014-02-12 12:55:00
7:15 AM,15.8,1.4,53,30.24,10.0,North,6.9,-,N/A,,Clear,350,2014-02-12 13:15:00
7:35 AM,15.8,1.4,53,30.24,10.0,North,9.2,-,N/A,,Clear,350,2014-02-12 13:35:00
7:55 AM,15.8,1.4,53,30.23,10.0,North,9.2,-,N/A,,Scattered Clouds,360,2014-02-12 13:55:00
8:15 AM,15.8,1.4,53,30.22,10.0,North,10.4,-,N/A,,Partly Cloudy,360,2014-02-12 14:15:00
8:35 AM,17.6,3.2,53,30.22,10.0,North,9.2,-,N/A,,Clear,360,2014-02-12 14:35:00
8:55 AM,17.6,3.2,53,30.20,10.0,North,8.1,-,N/A,,Clear,10,2014-02-12 14:55:00
9:15 AM,19.4,5.0,54,30.20,10.0,North,9.2,-,N/A,,Clear,360,2014-02-12 15:15:00
9:35 AM,19.4,6.8,58,30.20,10.0,North,8.1,-,N/A,,Clear,10,2014-02-12 15:35:00
9:55 AM,19.4,6.8,58,30.19,8.0,North,8.1,-,N/A,,Clear,10,2014-02-12 15:55:00
10:15 AM,21.2,8.6,58,30.18,8.0,NNE,9.2,-,N/A,,Clear,20,2014-02-12 16:15:00
10:35 AM,23.0,8.6,54,30.19,9.0,North,10.4,-,N/A,,Clear,350,2014-02-12 16:35:00
10:55 AM,24.8,10.4,54,30.19,10.0,North,10.4,-,N/A,,Clear,360,2014-02-12 16:55:00
11:15 AM,26.6,10.4,51,30.18,10.0,North,11.5,-,N/A,,Clear,360,2014-02-12 17:15:00
11:35 AM,26.6,12.2,55,30.17,10.0,North,8.1,-,N/A,,Clear,10,2014-02-12 17:35:00
11:55 AM,28.4,12.2,51,30.15,10.0,North,8.1,-,N/A,,Clear,10,2014-02-12 17:55:00
12:15 PM,30.2,12.2,47,30.14,10.0,NNE,8.1,-,N/A,,Clear,30,2014-02-12 18:15:00
12:35 PM,30.2,12.2,47,30.12,10.0,NNE,8.1,-,N/A,,Clear,20,2014-02-12 18:35:00
12:55 PM,30.2,12.2,47,30.11,10.0,North,6.9,-,N/A,,Clear,360,2014-02-12 18:55:00
1:15 PM,30.2,12.2,47,30.09,10.0,North,6.9,-,N/A,,Clear,10,2014-02-12 19:15:00
1:35 PM,32.0,14.0,48,30.08,10.0,North,6.9,-,N/A,,Clear,360,2014-02-12 19:35:00
1:55 PM,33.8,15.8,48,30.06,10.0,North,6.9,-,N/A,,Clear,360,2014-02-12 19:55:00
2:15 PM,33.8,15.8,48,30.05,10.0,NE,5.8,-,N/A,,Clear,50,2014-02-12 20:15:00
2:35 PM,33.8,15.8,48,30.05,10.0,NNE,5.8,-,N/A,,Clear,30,2014-02-12 20:35:00
2:55 PM,33.8,15.8,48,30.04,10.0,NE,4.6,-,N/A,,Clear,40,2014-02-12 20:55:00
3:15 PM,35.6,15.8,44,30.03,10.0,NE,5.8,-,N/A,,Clear,40,2014-02-12 21:15:00
3:35 PM,35.6,15.8,44,30.03,10.0,NE,4.6,-,N/A,,Clear,40,2014-02-12 21:35:00
3:55 PM,35.6,15.8,44,30.03,10.0,NE,4.6,-,N/A,,Clear,40,2014-02-12 21:55:00
4:15 PM,35.6,17.6,48,30.03,10.0,NE,3.5,-,N/A,,Clear,50,2014-02-12 22:15:00
4:35 PM,35.6,17.6,48,30.03,10.0,ENE,3.5,-,N/A,,Clear,60,2014-02-12 22:35:00
4:55 PM,35.6,17.6,48,30.02,10.0,ENE,4.6,-,N/A,,Clear,70,2014-02-12 22:55:00
5:15 PM,33.8,17.6,52,30.02,10.0,East,4.6,-,N/A,,Clear,80,2014-02-12 23:15:00
5:35 PM,33.8,15.8,48,30.02,10.0,East,5.8,-,N/A,,Clear,80,2014-02-12 23:35:00
5:55 PM,33.8,15.8,48,30.03,10.0,East,4.6,-,N/A,,Clear,80,2014-02-12 23:55:00
6:15 PM,33.8,15.8,48,30.04,10.0,Calm,Calm,-,N/A,,Clear,0,2014-02-13 00:15:00
6:35 PM,33.8,14.0,44,30.05,10.0,Calm,Calm,-,N/A,,Clear,0,2014-02-13 00:35:00
6:55 PM,32.0,15.8,51,30.04,10.0,ENE,4.6,-,N/A,,Clear,60,2014-02-13 00:55:00
7:15 PM,30.2,14.0,51,30.05,10.0,Calm,Calm,-,N/A,,Clear,0,2014-02-13 01:15:00
7:35 PM,30.2,14.0,51,30.04,10.0,ENE,3.5,-,N/A,,Clear,60,2014-02-13 01:35:00
7:55 PM,28.4,14.0,55,30.05,10.0,Calm,Calm,-,N/A,,Clear,0,2014-02-13 01:55:00
8:15 PM,28.4,14.0,55,30.04,10.0,Calm,Calm,-,N/A,,Clear,0,2014-02-13 02:15:00
8:35 PM,28.4,15.8,59,30.04,10.0,NW,3.5,-,N/A,,Clear,320,2014-02-13 02:35:00
8:55 PM,26.6,14.0,59,30.03,10.0,NW,4.6,-,N/A,,Clear,320,2014-02-13 02:55:00
9:15 PM,26.6,15.8,64,30.04,10.0,NW,3.5,-,N/A,,Clear,310,2014-02-13 03:15:00
9:35 PM,24.8,14.0,64,30.03,10.0,Calm,Calm,-,N/A,,Clear,0,2014-02-13 03:35:00
9:55 PM,24.8,14.0,64,30.03,10.0,Calm,Calm,-,N/A,,Clear,0,2014-02-13 03:55:00
10:15 PM,24.8,14.0,64,30.03,10.0,Calm,Calm,-,N/A,,Clear,0,2014-02-13 04:15:00
10:35 PM,24.8,14.0,64,30.03,10.0,South,3.5,-,N/A,,Clear,170,2014-02-13 04:35:00
10:55 PM,24.8,14.0,64,30.02,10.0,Calm,Calm,-,N/A,,Clear,0,2014-02-13 04:55:00
11:15 PM,24.8,15.8,69,30.01,10.0,Calm,Calm,-,N/A,,Clear,0,2014-02-13 05:15:00
11:35 PM,24.8,15.8,69,30.00,10.0,Calm,Calm,-,N/A,,Clear,0,2014-02-13 05:35:00
11:55 PM,24.8,14.0,64,30.00,10.0,Calm,Calm,-,N/A,,Clear,0,2014-02-13 05:55:00